TimeCST,TemperatureF,Dew PointF,Humidity,Sea Level PressureIn,VisibilityMPH,Wind Direction,Wind SpeedMPH,Gust SpeedMPH,PrecipitationIn,Events,Conditions,WindDirDegrees,DateUTC
12:53 AM,57.9,27.0,31,30.05,10.0,East,16.1,-,N/A,,Overcast,100,2013-02-20 06:53:00
1:53 AM,57.0,37.0,47,30.06,10.0,East,5.8,-,N/A,,Overcast,80,2013-02-20 07:53:00
2:53 AM,55.9,43.0,62,30.06,10.0,ESE,11.5,-,N/A,,Overcast,120,2013-02-20 08:53:00
3:53 AM,55.0,45.0,69,30.01,10.0,East,10.4,-,N/A,,Overcast,90,2013-02-20 09:53:00
4:53 AM,54.0,45.0,72,30.01,10.0,East,8.1,-,N/A,,Overcast,80,2013-02-20 10:53:00
5:53 AM,54.0,45.0,72,29.97,10.0,East,10.4,-,N/A,,Overcast,80,2013-02-20 11:53:00
6:53 AM,54.0,46.9,77,29.96,10.0,East,11.5,-,N/A,,Overcast,90,2013-02-20 12:53:00
7:53 AM,55.9,48.9,77,29.95,10.0,East,8.1,-,N/A,,Overcast,80,2013-02-20 13:53:00
8:53 AM,57.9,51.1,78,29.96,10.0,ESE,8.1,-,N/A,,Overcast,110,2013-02-20 14:53:00
9:53 AM,57.9,51.1,78,29.99,10.0,North,4.6,-,N/A,,Overcast,350,2013-02-20 15:53:00
10:53 AM,59.0,55.9,90,29.96,6.0,ESE,10.4,-,0.00,Rain,Light Rain,110,2013-02-20 16:53:00
11:34 AM,60.8,57.2,88,29.93,9.0,ESE,13.8,24.2,0.00,,Overcast,120,2013-02-20 17:34:00
11:53 AM,61.0,59.0,93,29.91,7.0,ESE,17.3,23.0,0.00,Rain,Light Rain,120,2013-02-20 17:53:00
12:10 PM,60.8,59.0,94,29.90,8.0,ESE,17.3,-,0.00,,Overcast,110,2013-02-20 18:10:00
12:38 PM,62.6,60.8,94,29.89,10.0,SE,16.1,-,0.00,,Overcast,130,2013-02-20 18:38:00
12:53 PM,64.0,60.1,87,29.87,10.0,ESE,16.1,-,0.00,,Overcast,120,2013-02-20 18:53:00
1:53 PM,66.9,61.0,81,29.80,10.0,ESE,13.8,-,N/A,,Overcast,120,2013-02-20 19:53:00
2:44 PM,68.0,62.6,83,29.77,10.0,ESE,17.3,-,N/A,,Overcast,120,2013-02-20 20:44:00
2:53 PM,68.0,63.0,84,29.76,10.0,ESE,13.8,-,N/A,,Overcast,120,2013-02-20 20:53:00
3:33 PM,66.2,62.6,88,29.76,9.0,East,10.4,-,N/A,,Overcast,100,2013-02-20 21:33:00
3:53 PM,66.9,63.0,87,29.75,7.0,East,9.2,-,N/A,,Overcast,90,2013-02-20 21:53:00
4:53 PM,68.0,64.0,87,29.72,8.0,East,9.2,-,N/A,,Overcast,90,2013-02-20 22:53:00
5:53 PM,69.1,64.9,87,29.70,8.0,ESE,13.8,19.6,N/A,,Overcast,110,2013-02-20 23:53:00
6:53 PM,69.1,64.9,87,29.70,10.0,ESE,17.3,-,N/A,,Overcast,120,2013-02-21 00:53:00
7:53 PM,69.1,64.9,87,29.68,9.0,ESE,16.1,24.2,N/A,,Overcast,120,2013-02-21 01:53:00
8:53 PM,69.1,64.9,87,29.68,9.0,SE,16.1,26.5,N/A,,Overcast,130,2013-02-21 02:53:00
9:05 PM,69.8,64.4,83,29.69,9.0,SE,15.0,-,N/A,,Overcast,130,2013-02-21 03:05:00
9:53 PM,69.1,64.9,87,29.67,8.0,SE,15.0,20.7,N/A,,Overcast,130,2013-02-21 03:53:00
10:00 PM,68.0,66.2,94,29.68,8.0,SE,13.8,-,N/A,,Overcast,130,2013-02-21 04:00:00
10:53 PM,69.1,64.9,87,29.65,9.0,SE,12.7,21.9,N/A,,Overcast,140,2013-02-21 04:53:00
11:53 PM,70.0,64.9,84,29.64,9.0,SSE,19.6,27.6,N/A,,Overcast,150,2013-02-21 05:53:00